Wind_Speed
5 4 4 4 3 2 2 1 1 1 1 1 1 0 0 1 1 1 1 1 1 1 0 1 1 2 2 2 3 3 4 4 4 4 4 4 4 4 4 4 4 3 3
5 5 4 4 3 2 2 2 1 1 1 0 1 1 1 0 1 1 1 2 1 1 0 1 1 2 2 2 3 4 4 4 4 4 4 5 5 5 5 5 5 5 4
7 6 6 5 4 4 3 3 2 2 2 1 1 1 1 1 1 0 1 1 2 1 1 1 1 1 2 2 3 4 4 5 5 5 5 6 6 6 6 6 6 6 5
8 8 7 6 5 4 4 4 3 3 3 2 2 2 2 2 1 0 1 1 2 2 1 0 1 1 1 2 3 3 4 5 5 6 6 6 6 6 6 6 6 6 6
9 8 8 7 7 6 5 5 5 4 4 4 3 3 2 2 2 1 1 0 1 1 1 0 1 1 1 1 2 3 3 4 5 6 6 6 6 7 7 8 7 7 7
10 9 8 8 8 8 7 7 6 6 6 5 4 4 4 3 3 3 2 1 1 1 1 0 1 1 2 2 2 2 3 4 5 5 6 7 7 7 7 8 9 9 9
10 10 9 9 9 9 9 8 8 7 7 7 6 6 5 5 6 5 4 3 3 3 2 2 2 2 2 2 2 3 3 4 5 6 6 6 7 7 8 8 9 9 10
10 10 10 10 10 10 9 10 10 9 9 8 8 7 7 7 7 7 6 5 5 4 4 3 3 2 3 3 3 4 4 4 5 6 6 6 7 8 9 9 9 10 10
11 11 11 11 11 11 10 10 11 11 10 10 9 9 8 8 8 8 8 8 8 7 6 6 5 5 4 5 5 5 5 5 5 6 7 8 8 9 9 9 10 10 11
12 12 12 12 11 11 11 12 12 12 11 11 11 10 10 9 9 9 9 9 9 8 9 8 7 7 7 7 7 7 7 7 7 7 8 9 9 10 10 10 11 11 12
13 13 13 13 13 12 12 12 13 12 13 13 12 12 11 11 11 11 11 11 11 11 11 10 10 10 9 9 9 9 9 9 9 10 10 11 11 11 11 11 12 12 13
14 14 14 15 14 14 13 13 13 14 14 14 14 13 13 13 13 12 12 12 12 13 13 12 12 12 13 12 12 11 11 12 12 12 12 12 13 13 13 13 13 14 14
15 16 15 16 15 15 15 15 14 15 15 15 15 15 14 14 14 14 14 13 13 14 14 14 14 14 14 14 14 14 14 14 15 15 15 15 15 15 15 16 16 16 17
14 15 15 16 16 16 16 16 16 16 17 16 16 16 16 16 16 16 16 16 15 15 16 16 16 16 16 16 17 17 16 16 16 17 17 17 17 18 18 18 19 19 19
14 15 16 17 17 18 17 18 18 17 18 18 18 18 18 18 18 18 18 19 18 18 18 18 18 19 19 19 19 19 19 19 19 19 19 19 20 20 20 21 21 21 22
13 15 16 18 18 19 19 19 19 18 18 19 19 20 21 21 21 21 21 21 21 20 20 20 21 21 21 21 21 22 22 22 22 22 22 22 22 22 23 24 24 24 24
13 14 16 18 19 20 20 21 21 20 20 21 21 21 21 22 23 23 23 23 23 23 23 22 22 23 23 24 24 24 24 25 25 25 25 26 25 25 26 27 27 28 28
13 14 16 17 19 20 21 22 22 22 22 23 23 23 23 24 24 24 24 24 24 24 24 24 24 25 25 25 26 27 27 27 27 27 28 28 28 29 29 30 30 30 31
14 15 16 17 18 20 21 21 22 23 22 22 23 22 23 24 25 25 25 25 25 25 26 26 26 27 27 27 28 28 29 29 30 30 30 30 31 32 33 33 33 33 34
14 15 16 17 19 21 21 22 22 22 22 22 21 22 23 24 24 25 26 26 27 27 27 28 28 29 29 29 30 30 31 31 32 32 33 33 34 35 36 36 36 36 37
15 16 16 17 17 19 20 21 22 22 21 22 22 22 23 24 25 25 26 26 27 28 28 28 29 30 30 31 31 31 32 32 33 33 33 34 36 37 38 38 38 39 39
16 16 16 16 16 17 18 18 19 19 20 20 21 22 23 23 24 25 25 26 26 28 29 30 31 31 31 32 32 32 32 32 33 34 36 36 37 38 38 39 40 41 42
15 15 15 15 15 15 16 16 17 18 19 20 20 21 22 23 24 25 26 26 26 27 29 29 30 30 31 31 32 33 33 33 34 36 37 38 39 40 41 41 42 43 43
15 15 15 15 15 15 16 16 17 18 19 20 21 23 23 24 26 26 27 27 27 28 28 28 29 30 31 32 33 33 34 35 36 37 38 39 40 40 41 42 42 43 44
15 15 15 15 15 16 16 16 17 19 20 21 22 23 24 25 25 26 27 27 27 27 28 29 30 31 32 33 33 34 35 36 37 38 39 40 41 42 43 44 45 46 47
15 15 15 15 16 16 17 17 18 19 21 22 23 24 24 25 25 26 26 27 28 29 30 31 31 32 33 33 34 35 36 37 38 39 41 42 43 44 45 46 47 48 49
Wind_Direction
237 240 248 251 253 242 210 196 193 160 130 89 100 232 22 25 25 33 44 54 50 40 70 144 163 175 188 200 208 207 199 191 193 200 202 200 200 202 209 211 203 204 208
234 233 235 248 245 229 220 224 222 171 148 133 161 189 175 284 37 49 46 44 38 41 80 163 195 206 216 224 225 219 216 213 209 212 215 214 213 213 219 214 213 218 223
229 228 228 235 229 221 219 225 222 204 196 208 211 203 204 225 259 9 44 49 53 57 84 158 188 204 224 228 217 216 218 219 221 224 225 223 222 224 224 220 222 225 229
225 221 221 226 223 217 216 215 213 215 215 218 218 217 222 222 211 182 80 78 71 62 66 124 194 210 226 224 213 213 222 223 227 225 221 222 226 229 230 230 232 235 238
222 220 215 218 222 220 220 220 215 224 227 229 225 228 239 231 201 201 195 138 55 30 31 51 210 218 223 231 226 227 232 231 232 228 224 225 231 236 237 237 240 241 245
217 218 219 218 221 223 225 224 219 227 230 235 236 238 240 232 222 221 218 232 269 295 288 273 228 220 231 242 242 233 235 239 238 234 232 235 239 242 244 243 245 247 249
218 222 225 227 227 227 229 225 223 230 231 233 236 238 241 236 233 233 236 247 251 254 254 257 251 244 241 247 252 248 248 247 244 243 244 245 245 245 246 249 249 251 255
222 223 226 229 231 230 231 227 227 230 232 233 237 238 234 233 234 238 244 248 251 255 259 260 256 255 258 263 265 263 260 259 253 248 247 249 250 250 251 253 253 254 258
226 227 229 229 232 234 233 228 228 230 233 234 236 238 237 233 237 241 245 248 249 253 258 261 261 261 269 269 268 263 262 266 265 257 254 254 257 258 257 257 256 257 258
233 233 233 232 233 235 234 231 231 231 235 236 238 240 241 240 243 246 248 250 252 253 256 257 260 259 263 264 264 265 266 265 267 266 263 262 260 260 261 261 262 263 263
239 237 237 235 235 235 235 236 237 236 236 237 239 242 243 243 244 247 251 253 252 253 253 254 255 257 260 262 264 266 266 265 267 267 267 266 262 261 262 263 266 267 267
242 242 243 241 238 239 239 239 240 239 239 239 242 244 245 244 245 248 250 253 253 253 253 255 256 258 261 263 264 266 267 268 267 268 267 267 266 264 263 264 266 268 270
243 242 245 245 243 243 240 241 242 241 242 244 244 245 245 247 248 250 251 254 256 256 257 259 260 262 263 265 264 266 269 269 268 267 267 267 267 266 265 266 267 268 269
245 243 246 247 246 247 245 245 246 246 246 247 248 248 248 251 253 253 254 257 258 259 261 262 263 265 266 266 265 267 270 271 271 269 267 268 268 268 268 269 269 269 269
249 248 249 250 250 250 247 248 250 249 249 249 249 250 251 253 255 256 258 260 261 261 262 264 264 265 266 267 268 268 269 270 271 271 270 269 270 270 271 271 271 271 271
256 254 252 249 250 250 247 249 250 250 250 252 253 254 255 255 257 257 260 263 263 263 263 265 266 266 266 267 269 269 268 267 267 269 270 270 270 271 273 272 271 272 273
262 259 256 252 252 252 250 249 250 252 252 253 254 256 258 258 260 259 261 264 265 265 265 266 267 267 267 267 267 269 269 268 267 267 270 270 270 271 272 273 273 273 274
267 262 260 257 254 254 254 253 251 252 254 254 255 256 258 259 261 262 263 265 265 265 266 266 268 267 268 269 268 268 270 270 269 269 270 270 270 271 271 272 273 274 275
270 266 263 258 258 258 258 255 253 253 256 256 255 256 259 261 261 262 263 265 267 267 267 268 270 270 270 272 272 270 271 271 269 270 270 269 270 271 272 273 273 274 275
273 271 269 267 264 260 259 256 253 255 255 255 256 257 259 261 262 264 265 266 267 268 269 270 272 273 271 272 272 272 273 272 271 271 270 269 270 271 272 272 273 274 275
273 272 271 272 270 263 260 259 257 257 257 257 258 258 258 262 265 266 268 269 267 267 269 272 273 273 273 273 273 275 275 274 272 271 271 270 271 272 272 273 273 274 275
273 274 274 273 271 266 262 258 257 258 258 259 260 262 264 269 269 268 270 271 270 270 272 274 274 274 274 275 276 276 275 274 273 273 274 273 272 272 273 275 275 275 276
277 276 274 275 273 267 263 259 257 258 259 260 263 265 267 270 273 273 275 277 276 275 276 275 274 275 275 275 276 276 275 275 274 275 275 275 274 275 276 277 277 277 278
280 278 274 273 273 270 265 262 263 264 263 263 265 266 268 270 274 276 277 278 278 277 278 276 274 275 274 275 275 276 276 276 275 276 276 278 278 278 278 279 279 278 278
279 275 273 273 274 273 270 268 268 268 268 269 269 270 272 274 276 277 277 278 279 279 279 279 279 278 277 277 277 279 279 278 277 278 278 279 280 281 280 280 280 279 279
280 279 278 277 278 277 275 273 272 273 273 274 275 273 273 275 276 278 279 279 279 279 280 281 281 281 280 280 281 281 281 281 281 281 280 280 280 281 281 282 282 281 281
Height
5900 5901 5901 5901 5901 5901 5901 5902 5902 5902 5902 5902 5902 5901 5901 5901 5900 5900 5900 5899 5899 5899 5898 5898 5898 5898 5898 5898 5898 5899 5899 5899 5899 5900 5900 5900 5901 5901 5901 5901 5901 5902 5902
5899 5900 5900 5900 5901 5901 5901 5901 5901 5902 5902 5902 5902 5901 5901 5901 5901 5901 5900 5900 5899 5899 5898 5898 5898 5898 5898 5898 5898 5898 5898 5899 5899 5899 5900 5900 5900 5900 5900 5901 5901 5901 5901
5897 5898 5899 5900 5900 5900 5900 5901 5901 5901 5902 5902 5902 5902 5902 5902 5901 5901 5901 5900 5900 5899 5899 5898 5898 5898 5898 5897 5897 5897 5898 5898 5898 5898 5899 5899 5899 5899 5900 5900 5900 5900 5901
5896 5897 5898 5898 5899 5899 5900 5900 5901 5901 5901 5902 5902 5902 5902 5902 5901 5901 5901 5900 5900 5899 5899 5898 5898 5898 5898 5897 5897 5897 5897 5897 5897 5897 5898 5898 5898 5899 5899 5899 5899 5900 5900
5894 5895 5896 5897 5898 5899 5899 5900 5900 5901 5901 5901 5901 5901 5901 5901 5901 5901 5901 5901 5900 5900 5899 5899 5898 5898 5898 5897 5897 5897 5897 5897 5897 5897 5897 5897 5897 5898 5898 5898 5898 5898 5898
5893 5894 5895 5896 5897 5898 5898 5899 5899 5900 5900 5900 5901 5901 5901 5901 5901 5901 5901 5901 5900 5900 5899 5899 5898 5898 5897 5897 5897 5897 5896 5896 5896 5896 5896 5896 5896 5896 5897 5897 5897 5897 5897
5891 5892 5894 5895 5896 5896 5896 5897 5898 5898 5899 5899 5900 5900 5901 5901 5901 5901 5900 5900 5900 5900 5899 5898 5898 5897 5897 5897 5897 5896 5896 5896 5895 5895 5895 5895 5895 5895 5895 5895 5895 5895 5895
5889 5890 5892 5893 5894 5894 5895 5895 5896 5897 5898 5898 5899 5899 5899 5900 5900 5900 5900 5900 5899 5899 5899 5898 5898 5897 5897 5896 5896 5896 5895 5895 5894 5894 5894 5894 5894 5894 5893 5893 5893 5893 5893
5887 5888 5889 5890 5891 5892 5892 5893 5894 5895 5896 5897 5897 5898 5898 5899 5899 5899 5899 5899 5899 5898 5898 5897 5897 5896 5896 5896 5895 5895 5894 5894 5893 5893 5893 5892 5892 5892 5892 5891 5891 5891 5891
5884 5886 5887 5888 5889 5889 5890 5891 5892 5893 5894 5894 5895 5896 5897 5897 5897 5897 5897 5897 5897 5897 5897 5896 5896 5895 5895 5894 5894 5893 5893 5892 5892 5892 5891 5891 5890 5890 5890 5889 5889 5889 5888
5882 5883 5884 5885 5886 5887 5887 5888 5889 5890 5891 5892 5892 5893 5894 5894 5895 5895 5895 5895 5895 5895 5895 5894 5894 5894 5893 5892 5892 5891 5891 5890 5890 5889 5889 5889 5888 5887 5887 5887 5887 5886 5886
5879 5880 5881 5882 5883 5884 5885 5885 5886 5887 5888 5888 5889 5890 5890 5891 5892 5892 5892 5892 5893 5893 5892 5892 5892 5891 5890 5890 5889 5889 5888 5887 5887 5887 5886 5886 5885 5885 5884 5884 5883 5883 5882
5876 5877 5878 5879 5880 5881 5881 5882 5883 5883 5884 5885 5886 5886 5887 5888 5888 5889 5889 5889 5889 5889 5889 5889 5889 5888 5887 5887 5886 5886 5885 5884 5884 5883 5883 5882 5882 5881 5881 5880 5880 5879 5878
5872 5873 5874 5875 5876 5877 5878 5879 5879 5880 5881 5881 5882 5883 5883 5884 5884 5885 5885 5885 5885 5886 5886 5885 5885 5884 5884 5883 5883 5882 5881 5880 5880 5879 5879 5878 5878 5877 5877 5876 5875 5875 5874
5869 5869 5870 5871 5872 5873 5874 5875 5875 5876 5877 5877 5878 5879 5879 5880 5880 5881 5881 5881 5881 5881 5881 5881 5881 5880 5879 5879 5878 5877 5877 5876 5875 5875 5874 5874 5873 5873 5872 5871 5870 5870 5869
5865 5865 5866 5866 5867 5868 5869 5870 5871 5872 5872 5873 5873 5874 5874 5875 5875 5876 5876 5876 5876 5876 5876 5876 5875 5875 5874 5874 5873 5872 5872 5871 5870 5870 5869 5868 5868 5867 5866 5865 5864 5864 5863
5861 5861 5862 5862 5863 5863 5864 5865 5865 5866 5867 5868 5868 5869 5869 5869 5870 5870 5870 5870 5870 5870 5870 5870 5869 5869 5868 5868 5867 5866 5866 5865 5864 5863 5863 5862 5861 5860 5860 5858 5857 5857 5856
5858 5857 5857 5857 5857 5858 5858 5859 5860 5861 5862 5862 5862 5862 5863 5863 5864 5864 5864 5864 5864 5864 5864 5863 5863 5862 5862 5861 5860 5859 5859 5858 5857 5856 5856 5855 5854 5853 5852 5851 5849 5849 5848
5854 5853 5853 5853 5853 5853 5853 5853 5854 5855 5855 5856 5856 5857 5857 5857 5858 5858 5858 5858 5857 5857 5857 5857 5856 5855 5854 5854 5853 5852 5851 5850 5849 5848 5848 5847 5846 5845 5843 5842 5841 5840 5839
5850 5849 5848 5848 5847 5847 5847 5847 5848 5849 5850 5850 5851 5851 5851 5851 5852 5851 5851 5851 5850 5850 5850 5849 5848 5847 5847 5846 5845 5844 5843 5842 5841 5840 5839 5838 5836 5835 5834 5833 5832 5830 5829
5846 5845 5844 5843 5842 5841 5841 5842 5842 5844 5844 5845 5845 5845 5845 5845 5845 5845 5844 5843 5843 5842 5842 5842 5841 5839 5839 5838 5837 5835 5834 5833 5831 5830 5829 5828 5827 5826 5824 5823 5821 5820 5818
5842 5841 5840 5839 5837 5836 5836 5837 5838 5838 5839 5839 5840 5840 5839 5839 5838 5838 5837 5837 5836 5835 5834 5833 5832 5831 5830 5829 5828 5826 5825 5824 5822 5821 5820 5818 5817 5816 5814 5812 5811 5809 5807
5837 5836 5835 5834 5834 5833 5833 5833 5833 5834 5834 5834 5834 5833 5833 5832 5832 5831 5830 5829 5828 5827 5826 5825 5824 5822 5821 5820 5818 5817 5815 5814 5812 5811 5809 5807 5806 5804 5803 5801 5799 5798 5796
5832 5832 5831 5830 5830 5829 5829 5829 5829 5829 5829 5828 5828 5827 5827 5826 5825 5824 5823 5822 5821 5819 5818 5816 5815 5813 5812 5811 5809 5808 5806 5804 5802 5801 5799 5797 5795 5793 5791 5789 5787 5785 5783
5828 5827 5827 5826 5826 5825 5824 5824 5824 5823 5823 5823 5822 5821 5821 5820 5819 5817 5816 5815 5813 5811 5809 5808 5806 5805 5803 5801 5800 5798 5796 5794 5792 5790 5788 5786 5784 5781 5779 5776 5774 5772 5769
5824 5823 5822 5822 5821 5820 5820 5819 5819 5818 5817 5817 5816 5815 5814 5813 5812 5810 5809 5807 5805 5803 5801 5800 5798 5796 5794 5792 5790 5788 5786 5783 5781 5779 5776 5774 5772 5769 5766 5763 5760 5758 5755